Location: *
(43.6428°N, 11.5461°E)
Time: 11:45:58
(UTC+00:00)

Cosmos 1939 Rocket - Visible Passes

Search period start: 23 January 2020 00:00
Search period end: 02 February 2020 00:00
Orbit: 532 x 585 km, 97.4° (Epoch: 22 January)

Date Brightness Start Highest point End Pass type
(mag) Time Alt. Az. Time Alt. Az. Time Alt. Az.
23 Jan 5.5 06:05:54 10° NE 06:09:25 26° E 06:12:55 10° SSE visible
23 Jan 4.2 16:54:04 10° ESE 16:56:44 18° ENE 16:59:26 10° NNE visible
23 Jan 4.3 18:27:44 10° SSW 18:31:22 37° W 18:35:05 10° NNW visible
24 Jan 5.6 06:04:19 10° NE 06:07:47 25° E 06:11:15 10° SSE visible
24 Jan 4.3 16:52:31 10° ESE 16:55:07 17° ENE 16:57:46 10° NNE visible
24 Jan 4.2 18:26:05 10° SSW 18:29:44 39° W 18:33:30 10° NNW visible
25 Jan 5.7 06:02:44 10° NE 06:06:10 25° E 06:09:34 10° SSE visible
25 Jan 4.3 16:50:58 10° ESE 16:53:31 17° ENE 16:56:06 10° NNE visible
25 Jan 4.1 18:24:25 10° S 18:28:07 41° W 18:31:54 10° NNW visible
26 Jan 5.7 06:01:10 10° NE 06:04:32 24° E 06:07:54 10° SSE visible
26 Jan 4.4 16:49:26 10° ESE 16:51:55 16° ENE 16:54:26 10° NNE visible
26 Jan 4.0 18:22:45 10° S 18:26:29 42° W 18:30:18 10° NNW visible
27 Jan 5.8 05:59:35 10° NE 06:02:55 23° E 06:06:13 10° SSE visible
27 Jan 4.4 16:47:54 10° ESE 16:50:19 16° ENE 16:52:45 10° NNE visible
27 Jan 3.9 18:21:06 10° S 18:24:51 44° W 18:28:43 10° NNW visible
28 Jan 5.9 05:58:01 10° NE 06:01:17 22° E 06:04:33 10° SE visible
28 Jan 4.4 16:46:22 10° E 16:48:42 15° ENE 16:51:04 10° NNE visible
28 Jan 3.9 18:19:27 10° S 18:23:14 46° W 18:27:07 10° NNW visible
29 Jan 5.9 05:56:27 10° NE 05:59:40 21° E 06:02:52 10° SE visible
29 Jan 3.8 18:17:47 10° S 18:21:36 48° W 18:25:31 10° NNW visible
30 Jan 5.9 05:54:53 10° NE 05:58:02 21° E 06:01:10 10° SE visible
30 Jan 3.7 18:16:08 10° S 18:19:58 50° W 18:23:55 10° NNW visible
31 Jan 6.0 05:53:19 10° NE 05:56:24 20° E 05:59:28 10° SE visible
31 Jan 3.6 18:14:29 10° S 18:18:21 53° W 18:22:18 10° NNW visible
01 Feb 6.0 05:51:45 10° NE 05:54:46 19° E 05:57:46 10° SE visible
01 Feb 3.5 18:12:50 10° S 18:16:43 55° W 18:20:43 10° NNW visible
